Weather in Novobessergenevka

Russia / Rostov Oblast     47°10′57″N   38°50′30″E
temp.,
°C
wind,
m/s
gust,
m/s
humid.,
%
clouds,
%
prec.,
mm/h
press.,
hPa
HPBL,
m
17 october, sun
sun1700:00+13ne3344100 0.0 101553
03:00+12nne3546100 0.0 101495
06:00+11ne3548100 0.0 1015111
09:00+13ne3546100 0.0 1015213
12:00+17ne3437100 0.0 1014568
15:00+19nne333443 0.0 1013964
18:00+16n464223 0.0 1014142
21:00+14nne364848 0.0 1015122
18 october, mon
mon1800:00+12n365435 0.0 1015123
03:00+11n345813 0.0 101681
06:00+11n355883 0.0 1016122
09:00+13n2555100 0.0 1017198
12:00+13nnw2354100 0.0 1017137
15:00+16nw2347100 0.0 1016661
18:00+13wnw2360100 0.0 1016104
21:00+12wnw356154 0.0 1017130
19 october, tue
tue1900:00+11nw3556100 0.0 1017141
03:00+9wnw3658100 0.0 1017151
06:00+9wnw4758100 0.0 1017274
09:00+10wnw4653100 0.0 1017426
12:00+12wsw5749100 0.0 10171555
15:00+10wsw5664100 0.1 10161153
18:00+9n356988 0.3 1016579
21:00+9nnw587099 0.5 1018891
20 october, wed
wed2000:00+7nnw511755 0.0 1020644
03:00+6nw511630 0.0 1021379
06:00+4nw510675 0.0 1024400
09:00+6nnw68655 0.0 1026763
12:00+8nnw67415 0.0 10271581
15:00+10nnw5635100 0.0 10271756
18:00+8nnw34395 0.0 1028501
21:00+6nw22445 0.0 102966
21 october, thu
thu2100:00+5wnw1148100 0.0 102940
03:00+5w11510 0.0 102855
06:00+5wnw11555 0.0 102985
09:00+8s35537 0.0 1028451
12:00+10ssw5551100 0.0 1027993
15:00+11ssw46425 0.0 1026901
18:00+9sw354619 0.0 1025247
21:00+9ssw36505 0.0 1023156